2023/02/06 00:00:00,46.1,-0.7
2023/02/06 00:10:00,46.1,-1.2
2023/02/06 00:20:00,46.1,-1.6
2023/02/06 00:30:00,46.1,-1.4
2023/02/06 00:40:00,46.0,-1.3
2023/02/06 00:50:00,46.2,-1.4
2023/02/06 01:00:00,46.2,-1.2
2023/02/06 01:10:00,46.0,-0.9
2023/02/06 01:20:00,46.1,-1.0
2023/02/06 01:30:00,46.1,-0.5
2023/02/06 01:40:00,46.1,-1.1
2023/02/06 01:50:00,46.0,-1.2
2023/02/06 02:00:00,46.1,-0.9
2023/02/06 02:10:00,46.1,-1.6
2023/02/06 02:20:00,46.1,-0.8
2023/02/06 02:30:00,46.3,-0.5
2023/02/06 02:40:00,46.2,-0.6
2023/02/06 02:50:00,46.1,-0.6
2023/02/06 03:00:00,46.1,-0.4
2023/02/06 03:10:00,46.2,-0.6
2023/02/06 03:20:00,46.1, 0.0
2023/02/06 03:30:00,46.2, 0.3
2023/02/06 03:40:00,46.2, 0.0
2023/02/06 03:50:00,46.1, 0.0
2023/02/06 04:00:00,46.1, 0.1
2023/02/06 04:10:00,46.1, 0.1
2023/02/06 04:20:00,46.0,-0.3
2023/02/06 04:30:00,46.0, 0.0
2023/02/06 04:40:00,46.0, 0.0
2023/02/06 04:50:00,46.0,-0.5
2023/02/06 05:00:00,46.1,-0.6
2023/02/06 05:10:00,46.1,-0.7
2023/02/06 05:20:00,46.0,-1.2
2023/02/06 05:30:00,46.0,-1.1
2023/02/06 05:40:00,46.0,-1.1
2023/02/06 05:50:00,46.0,-1.4
2023/02/06 06:00:00,46.0,-1.2
2023/02/06 06:10:00,46.0,-1.1
2023/02/06 06:20:00,46.0,-1.0
2023/02/06 06:30:00,46.1,-0.8
2023/02/06 06:40:00,46.0,-1.4
2023/02/06 06:50:00,46.0,-1.3
2023/02/06 07:00:00,45.9,-1.5
2023/02/06 07:10:00,46.1,-1.8
2023/02/06 07:20:00,46.2,-1.2
2023/02/06 07:30:00,45.9,-1.1
2023/02/06 07:40:00,46.0,-0.8
2023/02/06 07:50:00,46.0,-0.2
2023/02/06 08:00:00,46.0,-0.4
2023/02/06 08:10:00,45.9,-0.4
2023/02/06 08:20:00,45.8,-0.3
2023/02/06 08:30:00,46.0, 0.6
2023/02/06 08:40:00,45.7, 2.0
2023/02/06 08:50:00,45.7, 3.6
2023/02/06 09:00:00,45.7, 3.4
2023/02/06 09:10:00,45.4, 4.2
2023/02/06 09:20:00,45.3, 4.6
2023/02/06 09:30:00,45.2, 5.0
2023/02/06 09:40:00,45.1, 5.0
2023/02/06 09:50:00,45.0, 6.3
2023/02/06 10:00:00,44.8, 6.6
2023/02/06 10:10:00,44.9, 8.5
2023/02/06 10:20:00,44.7, 8.9
2023/02/06 10:30:00,44.7,10.4
2023/02/06 10:40:00,44.6,11.9
2023/02/06 10:50:00,44.4,13.2
2023/02/06 11:00:00,44.3,13.7
2023/02/06 11:10:00,44.3,12.9
2023/02/06 11:20:00,44.1,11.4
2023/02/06 11:30:00,43.9, 9.9
2023/02/06 11:40:00,44.1,10.2
2023/02/06 11:50:00,43.4, 9.9
2023/02/06 12:00:00,43.2,10.6
2023/02/06 12:10:00,43.5,10.1
2023/02/06 12:20:00,42.9, 9.8
2023/02/06 12:30:00,42.4,10.9
2023/02/06 12:40:00,42.7, 9.9
2023/02/06 12:50:00,42.2,10.3
2023/02/06 13:00:00,42.3,11.1
2023/02/06 13:10:00,41.8,10.2
2023/02/06 13:20:00,42.4,10.2
2023/02/06 13:30:00,---,11.7
2023/02/06 13:40:00,41.5, 9.8
2023/02/06 13:50:00,41.7,10.1
2023/02/06 14:00:00,41.7,10.3
2023/02/06 14:10:00,41.9,10.1
2023/02/06 14:20:00,42.2,10.3
2023/02/06 14:30:00,43.1, 9.4
2023/02/06 14:40:00,42.5, 8.5
2023/02/06 14:50:00,42.9, 8.1
2023/02/06 15:00:00,42.8, 8.4
2023/02/06 15:10:00,42.5, 7.6
2023/02/06 15:20:00,43.4, 7.5
2023/02/06 15:30:00,42.4, 6.7
2023/02/06 15:40:00,43.1, 6.2
2023/02/06 15:50:00,43.0, 6.0
2023/02/06 16:00:00,42.7, 5.9
2023/02/06 16:10:00,42.8, 6.0
2023/02/06 16:20:00,42.9, 5.3
2023/02/06 16:30:00,43.0, 4.8
2023/02/06 16:40:00,43.0, 4.2
2023/02/06 16:50:00,43.0, 3.8
2023/02/06 17:00:00,43.0, 3.3
2023/02/06 17:10:00,43.1, 3.1
2023/02/06 17:20:00,42.9, 2.8
2023/02/06 17:30:00,42.9, 2.4
2023/02/06 17:40:00,42.9, 2.2
2023/02/06 17:50:00,42.8, 2.2
2023/02/06 18:00:00,42.8, 2.3
2023/02/06 18:10:00,42.8, 2.4
2023/02/06 18:20:00,42.7, 2.0
2023/02/06 18:30:00,42.8, 1.9
2023/02/06 18:40:00,42.8, 1.8
2023/02/06 18:50:00,42.7, 1.7
2023/02/06 19:00:00,42.7, 2.0
2023/02/06 19:10:00,42.7, 2.4
2023/02/06 19:20:00,42.7, 2.2
2023/02/06 19:30:00,42.7, 2.3
2023/02/06 19:40:00,42.8, 2.3
2023/02/06 19:50:00,42.7, 2.2
2023/02/06 20:00:00,42.8, 2.3
2023/02/06 20:10:00,42.7, 1.8
2023/02/06 20:20:00,42.5, 2.4
2023/02/06 20:30:00,42.5, 2.2
2023/02/06 20:40:00,42.5, 1.8
2023/02/06 20:50:00,42.6, 1.8
2023/02/06 21:00:00,42.6, 2.2
2023/02/06 21:10:00,42.7, 1.8
2023/02/06 21:20:00,42.6, 1.9
2023/02/06 21:30:00,42.6, 2.3
2023/02/06 21:40:00,42.7, 1.8
2023/02/06 21:50:00,42.6, 2.0
2023/02/06 22:00:00,42.6, 2.4
2023/02/06 22:10:00,42.5, 2.5
2023/02/06 22:20:00,42.5, 2.6
2023/02/06 22:30:00,42.4, 2.7
2023/02/06 22:40:00,42.4, 2.4
2023/02/06 22:50:00,42.3, 2.4
2023/02/06 23:00:00,42.3, 2.7
2023/02/06 23:10:00,42.3, 2.9
2023/02/06 23:20:00,42.3, 2.8
2023/02/06 23:30:00,42.3, 2.6
2023/02/06 23:40:00,42.2, 2.4
2023/02/06 23:50:00,42.2, 2.7
